Location: Austin
(30.3000°N, 97.7500°W)
Time: 12:11:20
(UTC-05:00)

Cosmos 1633 Rocket - Pass Details

Date: 08 April 2026
Orbit: 600 x 615 km, 82.5° (Epoch: 11 April)

Event Time Altitude Azimuth Distance (km) Brightness Sun altitude
Rises 21:07:28 0° 186° (S) 2,867 6.3 -16.1°
Reaches altitude 10° 21:09:41 10° 186° (S) 1,966 5.5 -16.6°
Maximum altitude 21:14:02 87° 271° (W) 620 3.0 -17.5°
Drops below altitude 10° 21:18:25 10° 5° (N) 1,975 5.8 -18.3°
Sets 21:20:39 0° 6° (N) 2,882 6.7 -18.8°
